Location: Pebble Beach Sunset Acres
(33.0837°N, 96.4508°W)
Time: 15:14:37
(UTC+00:00)

Daily predictions for brighter satellites

Satellite Brightness Start Highest point End
(mag) Time Altitude Azimuth Time Altitude Azimuth Time Altitude Azimuth
SJ 16-02 1.8 12:01:36 10° SW 12:05:40 38° WNW 12:09:45 10° N
OAO 2 Rocket 3.4 12:04:47 15° WSW 12:09:09 79° SSE 12:14:17 10° ENE
CZ-4B R/B 3.2 12:06:57 10° NNE 12:10:29 60° E 12:14:08 10° S
H-2A R/B 4.0 12:13:52 20° W 12:13:52 20° W 12:16:04 10° WSW
Meteor 2-15 Rocket 4.4 12:09:11 10° N 12:15:14 76° W 12:21:16 10° S
DELTA 2 R/B (1) 4.1 12:12:08 18° WNW 12:15:58 46° N 12:21:18 10° E
Cosmos 1515 Rocket 3.6 12:12:22 10° NNW 12:16:36 52° W 12:20:47 10° S
Cosmos 2228 Rocket 3.9 12:17:47 10° N 12:22:14 54° E 12:26:41 10° SSE
Meteor 1-27 Rocket 3.7 12:16:54 10° NNW 12:22:36 72° W 12:28:23 10° S
Meteor 1-31 Rocket 3.9 12:21:34 10° NNW 12:24:39 23° WNW 12:27:45 10° WSW
Cosmos 1500 Rocket 4.0 12:24:23 10° SSW 12:28:34 39° W 12:32:46 10° N
Sich 1 3.0 12:24:47 10° S 12:29:03 85° E 12:33:20 10° N
SL-4 R/B 2.7 12:28:17 14° W 12:30:37 25° NW 12:33:43 10° NNE
SL-27 R/B 3.2 12:27:43 11° NW 12:30:43 32° W 12:33:50 10° SSW
SKYMED 2 4.5 12:27:38 10° SSW 12:31:23 28° W 12:35:08 10° NW
CZ-4B R/B 4.1 12:30:19 10° ESE 12:32:42 19° ENE 12:35:03 10° NNE
Cosmos 44 4.4 12:28:37 10° S 12:33:52 54° ESE 12:39:02 10° NE
Nadezhda 4 Rocket 4.5 12:29:23 10° SW 12:35:00 37° WNW 12:40:43 10° NNW
Cosmos 2297 Rocket 4.0 12:30:25 10° N 12:35:17 29° ENE 12:40:06 10° ESE
NOAA 12 4.0 12:30:39 10° N 12:35:54 78° WNW 12:41:07 10° SSW
Cosmos 1939 Rocket 2.7 12:33:18 10° N 12:37:11 85° WNW 12:41:02 10° SSW
CZ-2C R/B 3.5 12:33:59 10° SSW 12:38:45 30° W 12:43:26 10° NW
Meteor 1-25 Rocket 4.2 12:33:39 10° SSW 12:39:12 60° W 12:44:42 10° N
H-2A R/B 2.6 12:36:09 10° SSE 12:40:21 62° ENE 12:44:40 10° N
Cosmos 1805 Rocket 3.7 12:36:53 10° SSW 12:41:08 50° W 12:45:23 10° N
Cosmos 1538 Rocket 4.0 12:36:13 10° NNW 12:41:26 87° WSW 12:46:35 10° SSE
ADEOS 4.1 12:37:44 10° N 12:42:26 35° WNW 12:47:07 10° SW
H-2A R/B (2) 4.1 12:37:47 10° WSW 12:42:56 67° SSE 20:22:02 10° SE
Okean 1 3.9 12:40:06 10° N 12:44:01 61° E 12:47:54 10° SSE
Cosmos 1602 4.4 12:45:07 10° SW 12:48:34 33° W 12:52:02 10° NNW
Lacrosse 5 rocket 3.1 23:46:29 10° N 23:48:44 14° NE 23:51:04 10° ENE
Meteor 2-6 Rocket 4.4 23:43:30 10° S 23:49:06 55° E 23:54:34 10° NNE
GPS 2-04 Rocket1 3.2 23:45:05 10° W 23:49:09 63° SSW 23:53:12 10° ESE
NOAA 12 4.4 23:46:08 10° S 23:51:28 78° WSW 23:56:48 10° NNW
Cosmos 1812 2.9 23:49:32 10° S 23:53:20 75° W 23:57:11 10° N
Cosmos 1328 Rocket 3.6 23:51:11 10° S 23:55:33 62° E 23:59:56 10° NNE
